Location: Croisilles
(50.1998°N, 2.8793°E)
Time: 20:03:10
(UTC+00:00)

CZ-2C R/B - Pass Details

Date: 21 January 2021
Orbit: 785 x 870 km, 98.2° (Epoch: 01 March)

Event Time Altitude Azimuth Distance (km) Brightness Sun altitude
Exits shadow 17:26:44 11° 87° (E) 2,419 4.5 -9.9°
Drops below altitude 10° 17:27:58 10° 100° (E) 2,505 4.6 -10.1°
Sets 17:32:25 0° 134° (SE) 3,445 5.6 -10.8°
